Hourly Data Report for October 22, 2017

All times are specified in Local Standard Time (LST). Add 1 hour to adjust for Daylight Saving Time where and when it is observed.

SATURNA ISLAND CS
BRITISH COLUMBIA

48°47'02.067" N
123°02'41.082" W
24.40 m
1017101
71473
WEZ

Download Data

Hourly Data (October 2017)
Hourly Data Report for October 22, 2017
Temp Definition
°C
Dew Point Temp Definition
°C
Rel Hum Definition
%
Wind Dir Definition
10's deg

Wind Spd Definition
km/h
Visibility Definition
km
Stn Press Definition
kPa
Hmdx Definition


Wind Chill Definition


Weather Definition


TIME
00:00 11.2 10.6 97 22 20   99.90     LegendNANA
01:00 11.0 10.6 97 21 32   99.97     LegendNANA
02:00 11.5 10.8 95 23 16   100.14     LegendNANA
03:00 10.2 9.4 94 23 14   100.30     LegendNANA
04:00 11.3 8.4 82 24 14   100.46     LegendNANA
05:00 11.0 7.7 80 22 15   100.63     LegendNANA
06:00 11.0 7.5 79 20 12   100.82     LegendNANA
07:00 10.6 7.5 81 22 17   101.00     LegendNANA
08:00 11.2 8.1 81 8 2   101.20     LegendNANA
09:00 12.4 8.6 77 20 21   101.38     LegendNANA
10:00 12.6 8.6 77 25 7   101.53     LegendNANA
11:00 13.9 9.5 75 21 25   101.64     LegendNANA
12:00 14.3 8.7 69 20 28   101.76     LegendNANA
13:00 11.2 9.6 90 20 33   101.86     LegendNANA
14:00 12.6 9.2 80 21 28   101.93     LegendNANA
15:00 12.5 8.4 76 22 22   102.08     LegendNANA
16:00 12.3 7.9 75 23 13   102.15     LegendNANA
17:00 11.7 7.5 75 23 13   102.26     LegendNANA
18:00 11.7 6.7 71 23 9   102.39     LegendNANA
19:00 10.6 7.5 81 22 15   102.50     LegendNANA
20:00 10.0 8.1 88 22 15   102.60     LegendNANA
21:00 10.7 8.3 85 20 16   102.65     LegendNANA
22:00 10.5 8.2 86 20 15   102.75     LegendNANA
23:00 10.9 8.5 85 21 15   102.81     LegendNANA

Notes on Data Quality.

Legend

  • E = Estimated
  • M = Missing
  • NA = Not Available
  • ‡ = Partner data that is not subject to review by the National Climate Archives
Date modified: